Marianna, FL

3:23 PM CDT on March 29, 2017 (GMT -0500)
Marianna Municipal

Weather History for KMAI - April, 2014

Change the Weather History Date:

Sunday, April 27, 2014

  Actual Average Record
Temperature  
Mean Temperature 74 °F 70 °F  
Max Temperature 84 °F 83 °F 93 °F (2011)
Min Temperature 63 °F 57 °F 46 °F (2001)
Degree Days  
Heating Degree Days 0    
Month to date heating degree days 63  
Since 1 July heating degree days 1741  
Cooling Degree Days 9    
Month to date cooling degree days 89  
Year to date cooling degree days 101  
Growing Degree Days 23 (Base 50)    
Moisture  
Dew Point 65 °F    
Average Humidity 72    
Maximum Humidity 100    
Minimum Humidity 43    
Precipitation  
Precipitation 0.00 in 0.06 in 1.06 in (1997)
Month to date precipitation 7.65 3.55  
Year to date precipitation 22.84 19.07  
Sea Level Pressure  
Sea Level Pressure 29.95 in    
Wind  
Wind Speed 4 mph (SSE)    
Max Wind Speed 15 mph    
Max Gust Speed 19 mph    
Visibility 6 miles    
Events Fog    
T = Trace of Precipitation, MM = Missing Value Source: NWS Daily Summary

Daily Weather History Graph

Daily Weather History Graph

Search for Another Location

Airport or City:

Trip Planner

Search our weather history database for the weather conditions in past years. The results will help you decide how hot, cold, wet, or windy it might be!

Date:

Astronomy

Apr. 27, 2014 Rise Set
Actual Time 6:00 AM CDT 7:16 PM CDT
Civil Twilight 5:35 AM CDT 7:42 PM CDT
Nautical Twilight 5:04 AM CDT 8:12 PM CDT
Astronomical Twilight 4:33 AM CDT 8:43 PM CDT
Moon 4:52 AM CDT (4/27) 5:55 PM CDT (4/27)
Length of Visible Light 14h 07m
Length of Day
13h 16m
Waning Crescent, 3% of the Moon is Illuminated
Apr 27
Waning Crescent
Apr 29
New
May 6
First Quarter
May 14
Full
May 21
Last Quarter

Hourly Weather History & Observations

Time (CDT) Temp. Heat Index Dew Point Humidity Pressure Visibility Wind Dir Wind Speed Gust Speed Precip Events Conditions
12:53 AM 68.0 °F - 66.9 °F 96% 29.97 in 8.0 mi SSW 3.5 mph - N/A   Clear
1:53 AM 66.9 °F - 66.0 °F 97% 29.96 in 8.0 mi Calm Calm - N/A   Clear
2:53 AM 64.9 °F - 64.9 °F 100% 29.95 in 6.0 mi Calm Calm - N/A   Clear
3:30 AM 64.0 °F - 64.0 °F 100% 29.95 in 6.0 mi Calm Calm - N/A   Scattered Clouds
3:38 AM 64.9 °F - 64.9 °F 100% 29.94 in 2.5 mi Calm Calm - N/A   Mostly Cloudy
3:46 AM 64.9 °F - 64.9 °F 100% 29.94 in 1.0 mi Calm Calm - N/A   Mostly Cloudy
4:01 AM 64.0 °F - 64.0 °F 100% 29.95 in 0.8 mi Calm Calm - N/A   Overcast
4:16 AM 64.0 °F - 64.0 °F 100% 29.95 in 2.0 mi Calm Calm - N/A   Overcast
4:25 AM 64.0 °F - 64.0 °F 100% 29.95 in 3.0 mi Calm Calm - N/A   Overcast
4:27 AM 64.0 °F - 64.0 °F 100% 29.95 in 1.5 mi Calm Calm - N/A   Overcast
4:35 AM 64.9 °F - 64.9 °F 100% 29.95 in 0.2 mi Calm Calm - N/A Fog Fog
4:53 AM 66.0 °F - 66.0 °F 100% 29.95 in 0.2 mi Calm Calm - N/A Fog Fog
5:53 AM 66.0 °F - 66.0 °F 100% 29.97 in 0.2 mi SSW 3.5 mph - N/A Fog Fog
7:36 AM 66.9 °F - 66.9 °F 100% 29.99 in 1.0 mi Calm Calm - N/A   Overcast
7:53 AM 68.0 °F - 68.0 °F 100% 29.99 in 3.0 mi Calm Calm - N/A   Overcast
8:53 AM 70.0 °F - 70.0 °F 100% 30.00 in 10.0 mi SE 4.6 mph - N/A   Overcast
9:30 AM 72.0 °F - 70.0 °F 93% 30.00 in 10.0 mi East 4.6 mph - N/A   Mostly Cloudy
9:53 AM 75.0 °F - 70.0 °F 84% 29.99 in 10.0 mi SE 4.6 mph - N/A   Partly Cloudy
11:53 AM 78.1 °F - 66.9 °F 68% 29.96 in 10.0 mi East 5.8 mph - N/A   Partly Cloudy
12:53 PM 80.1 °F 82.3 °F 66.9 °F 64% 29.96 in 10.0 mi SSE 5.8 mph - N/A   Scattered Clouds
1:53 PM 82.0 °F 84.1 °F 66.0 °F 58% 29.94 in 10.0 mi Variable 5.8 mph - N/A   Mostly Cloudy
3:53 PM 82.0 °F 84.1 °F 66.0 °F 58% 29.90 in 10.0 mi SSE 8.1 mph - N/A   Partly Cloudy
4:53 PM 82.9 °F 85.0 °F 66.0 °F 56% 29.90 in 10.0 mi SSE 8.1 mph - N/A   Partly Cloudy
5:53 PM 82.0 °F 81.7 °F 57.0 °F 42% 29.90 in 10.0 mi South 9.2 mph - N/A   Clear
6:53 PM 78.1 °F - 59.0 °F 52% 29.90 in 10.0 mi SSE 6.9 mph - N/A   Clear
7:53 PM 75.0 °F - 60.1 °F 60% 29.89 in 10.0 mi SSE 8.1 mph - N/A   Clear
8:53 PM 72.0 °F - 61.0 °F 68% 29.91 in 10.0 mi SSE 4.6 mph - N/A   Clear
9:53 PM 69.1 °F - 62.1 °F 78% 29.92 in 10.0 mi Calm Calm - N/A   Clear
10:53 PM 64.0 °F - 61.0 °F 90% 29.92 in 10.0 mi Calm Calm - N/A   Clear
11:53 PM 66.9 °F - 63.0 °F 87% 29.91 in 10.0 mi Calm Calm - N/A   Clear